Tracking 28096 objects as of 28-Sep-2023
HD Live streaming from Space Station
objects crossing your sky now

TELECOM 1A

Track TELECOM 1A now!
TELECOM 1A is classified as:


NORAD ID: 15159
Int'l Code: 1984-081B
Perigee: 36,196.5 km
Apogee: 36,459.9 km
Inclination: 13.9 °
Period: 1,463.5 minutes
Semi major axis: 42699 km
RCS: 10.2909 m2 (large)
Launch date: August 4, 1984
Source: France (FR)
Launch site: FRENCH GUIANA (FRGUI)
Your satellite tracking list
Your tracking list is empty




NASA's NSSDC Master Catalog

Two Line Element Set (TLE):
1 15159U 84081B   23270.40619821 -.00000038  00000-0  00000-0 0  9999
2 15159  13.8586 340.8523 0030846  33.7817  45.6190  0.98394979108832
Source of the keplerian elements: AFSPC